2023/11/08 00:00:00, 0.0,10.7
2023/11/08 00:10:00, 0.0,11.0
2023/11/08 00:20:00, 0.0,11.1
2023/11/08 00:30:00, 0.0,11.0
2023/11/08 00:40:00, 0.0,10.9
2023/11/08 00:50:00, 0.0,10.4
2023/11/08 01:00:00, 0.0,10.4
2023/11/08 01:10:00, 0.0,10.2
2023/11/08 01:20:00, 0.0,10.2
2023/11/08 01:30:00, 0.0,10.7
2023/11/08 01:40:00, 0.0,10.7
2023/11/08 01:50:00, 0.0,10.6
2023/11/08 02:00:00, 0.0,10.6
2023/11/08 02:10:00, 0.0,10.6
2023/11/08 02:20:00, 0.0,10.7
2023/11/08 02:30:00, 0.0,10.7
2023/11/08 02:40:00, 0.0,10.5
2023/11/08 02:50:00, 0.0,10.6
2023/11/08 03:00:00, 0.0,10.2
2023/11/08 03:10:00, 0.0,10.3
2023/11/08 03:20:00, 0.0, 9.0
2023/11/08 03:30:00, 0.0, 8.8
2023/11/08 03:40:00, 0.0, 9.1
2023/11/08 03:50:00, 0.0, 9.2
2023/11/08 04:00:00, 0.0, 9.7
2023/11/08 04:10:00, 0.0, 9.7
2023/11/08 04:20:00, 0.0,10.2
2023/11/08 04:30:00, 0.0, 9.7
2023/11/08 04:40:00, 0.0,10.2
2023/11/08 04:50:00, 0.0,10.1
2023/11/08 05:00:00, 0.0,10.0
2023/11/08 05:10:00, 0.0, 9.8
2023/11/08 05:20:00, 0.0, 9.7
2023/11/08 05:30:00, 0.0,10.0
2023/11/08 05:40:00, 0.0, 9.5
2023/11/08 05:50:00, 0.0, 8.9
2023/11/08 06:00:00, 0.0, 8.4
2023/11/08 06:10:00, 0.0, 8.1
2023/11/08 06:20:00, 0.1, 7.8
2023/11/08 06:30:00, 0.0, 7.5
2023/11/08 06:40:00, 0.0, 7.7
2023/11/08 06:50:00, 0.0, 8.0
2023/11/08 07:00:00, 0.1, 8.4
2023/11/08 07:10:00, 0.1, 8.5
2023/11/08 07:20:00, 0.1, 9.4
2023/11/08 07:30:00, 0.1,10.1
2023/11/08 07:40:00, 0.0,10.8
2023/11/08 07:50:00, 0.0,11.2
2023/11/08 08:00:00, 0.0,11.7
2023/11/08 08:10:00, 0.1,14.9
2023/11/08 08:20:00, 0.1,16.2
2023/11/08 08:30:00, 0.1,16.8
2023/11/08 08:40:00, 0.2,18.5
2023/11/08 08:50:00, 0.2,19.0
2023/11/08 09:00:00, 0.2,19.3
2023/11/08 09:10:00, 0.1,19.1
2023/11/08 09:20:00, 0.0,17.9
2023/11/08 09:30:00, 0.0,21.7
2023/11/08 09:40:00, 0.1,22.3
2023/11/08 09:50:00, 0.0,22.9
2023/11/08 10:00:00, 0.0,24.2
2023/11/08 10:10:00, 0.1,24.3
2023/11/08 10:20:00, 0.0,24.6
2023/11/08 10:30:00, 0.0,24.7
2023/11/08 10:40:00, 0.0,24.5
2023/11/08 10:50:00, 0.0,21.4
2023/11/08 11:00:00, 0.0,23.9
2023/11/08 11:10:00, 0.0,24.1
2023/11/08 11:20:00, 0.0,23.5
2023/11/08 11:30:00, 0.0,24.8
2023/11/08 11:40:00, 0.0,25.0
2023/11/08 11:50:00, 0.0,24.8
2023/11/08 12:00:00, 0.0,25.3
2023/11/08 12:10:00, 0.0,25.2
2023/11/08 12:20:00, 0.0,25.2
2023/11/08 12:30:00, 0.0,25.0
2023/11/08 12:40:00, 0.0,23.2
2023/11/08 12:50:00, 0.0,23.8
2023/11/08 13:00:00, 0.0,25.4
2023/11/08 13:10:00, 0.0,25.2
2023/11/08 13:20:00, 0.0,24.8
2023/11/08 13:30:00, 0.0,24.0
2023/11/08 13:40:00, 0.0,25.1
2023/11/08 13:50:00, 0.0,24.8
2023/11/08 14:00:00, 0.0,25.0
2023/11/08 14:10:00, 0.0,25.4
2023/11/08 14:20:00, 0.0,25.6
2023/11/08 14:30:00, 0.0,24.5
2023/11/08 14:40:00, 0.0,24.9
2023/11/08 14:50:00, 0.0,24.3
2023/11/08 15:00:00, 0.0,24.7
2023/11/08 15:10:00, 0.0,25.1
2023/11/08 15:20:00, 0.0,23.8
2023/11/08 15:30:00, 0.0,23.2
2023/11/08 15:40:00, 0.0,23.5
2023/11/08 15:50:00, 0.0,19.6
2023/11/08 16:00:00, 0.0,20.8
2023/11/08 16:10:00, 0.0,22.6
2023/11/08 16:20:00, 0.0,20.6
2023/11/08 16:30:00, 0.0,17.8
2023/11/08 16:40:00, 0.0,15.7
2023/11/08 16:50:00, 0.0,14.8
2023/11/08 17:00:00, 0.0,13.9
2023/11/08 17:10:00, 0.0,13.2
2023/11/08 17:20:00, 0.0,12.8
2023/11/08 17:30:00, 0.0,12.2
2023/11/08 17:40:00, 0.0,11.7
2023/11/08 17:50:00, 0.0,11.1
2023/11/08 18:00:00, 0.1,10.9
2023/11/08 18:10:00, 0.1,10.7
2023/11/08 18:20:00, 0.1,11.1
2023/11/08 18:30:00, 0.1,11.3
2023/11/08 18:40:00, 0.0,11.4
2023/11/08 18:50:00, 0.0,11.2
2023/11/08 19:00:00, 0.0,10.7
2023/11/08 19:10:00, 0.0,10.6
2023/11/08 19:20:00, 0.0,10.4
2023/11/08 19:30:00, 0.0,10.2
2023/11/08 19:40:00, 0.0,10.2
2023/11/08 19:50:00, 0.0,10.2
2023/11/08 20:00:00, 0.0, 9.9
2023/11/08 20:10:00, 0.0, 9.6
2023/11/08 20:20:00, 0.0, 9.6
2023/11/08 20:30:00, 0.0, 9.5
2023/11/08 20:40:00, 0.0, 9.3
2023/11/08 20:50:00, 0.0, 9.1
2023/11/08 21:00:00, 0.0, 9.0
2023/11/08 21:10:00, 0.0, 8.7
2023/11/08 21:20:00, 0.0, 8.9
2023/11/08 21:30:00, 0.1, 8.8
2023/11/08 21:40:00, 0.1, 8.4
2023/11/08 21:50:00, 0.1, 8.6
2023/11/08 22:00:00, 0.1, 8.9
2023/11/08 22:10:00, 0.1, 8.6
2023/11/08 22:20:00, 0.1, 8.3
2023/11/08 22:30:00, 0.1, 8.3
2023/11/08 22:40:00, 0.1, 8.1
2023/11/08 22:50:00, 0.1, 8.3
2023/11/08 23:00:00, 0.1, 7.8
2023/11/08 23:10:00, 0.1, 8.1
2023/11/08 23:20:00, 0.1, 8.0
2023/11/08 23:30:00, 0.1, 8.0
2023/11/08 23:40:00, 0.1, 8.3
2023/11/08 23:50:00, 0.0, 8.7
